GFSNGP_con_lsi_159.txt.gz
Lid_Strength_Index
12 13 13 12 12 13 14 13 15 13 13 11 11 12 10 12 13 14 15 16 16 16 16 17 17 17 16 17 16 16 16 16 15 15 15 15 15 14 14 14 13 12 13 11
14 12 14 14 13 12 12 12 12 12 12 11 12 13 13 13 14 15 16 16 17 17 17 17 17 17 17 18 17 16 17 16 16 16 16 16 16 15 15 14 13 13 12 12
17 13 14 16 13 12 12 11 11 14 11 11 13 12 13 14 15 15 16 17 17 17 18 18 18 18 19 18 17 17 17 17 17 17 17 17 16 16 16 16 15 14 13 12
16 16 20 12 11 10 11 10 10 10 9 9 10 13 15 15 16 16 17 18 18 18 19 19 18 18 18 18 18 18 18 18 18 18 18 17 17 17 17 16 15 15 14 12
17 17 14 14 13 13 13 12 10 10 9 15 16 16 18 17 17 18 18 18 18 19 19 19 19 19 19 18 18 19 19 19 18 18 18 18 18 17 16 16 15 14 13 13
16 18 20 13 12 12 11 14 10 10 11 16 14 14 14 18 18 18 19 19 19 20 19 20 20 19 19 19 20 20 20 19 19 19 19 18 18 17 17 16 15 15 14 13
15 17 16 11 13 12 16 14 12 11 11 15 14 15 18 19 19 19 19 19 20 20 20 20 20 20 20 20 21 20 20 20 20 20 19 18 18 17 17 16 16 16 15 15
15 17 18 13 14 13 13 16 15 16 15 14 19 19 19 20 20 20 21 20 21 21 21 21 20 21 21 22 21 21 22 22 21 20 19 18 18 18 17 17 17 17 16 16
13 13 15 16 16 17 16 16 16 17 17 18 20 20 21 21 21 21 21 21 21 22 22 22 22 22 23 23 22 23 24 23 22 20 19 19 19 19 19 18 18 18 17 17
11 13 16 17 18 18 18 18 18 18 18 19 20 20 21 21 21 22 22 23 23 23 23 24 23 23 24 23 24 25 25 24 22 22 21 20 19 19 19 19 19 18 18 18
15 15 17 17 18 19 19 19 20 20 19 20 19 20 20 22 23 23 23 24 24 24 24 25 25 25 25 25 26 26 25 24 24 23 22 22 21 21 20 19 17 18 18 17
12 14 13 14 17 18 19 20 20 21 21 20 20 21 22 23 23 23 24 25 25 25 26 27 27 27 27 28 28 28 27 26 26 24 24 23 23 23 19 17 16 15 15 15
15 18 18 18 18 18 19 20 20 21 21 22 22 22 22 23 23 24 25 26 26 27 27 29 31 31 31 31 30 30 30 28 26 25 25 25 24 24 25 21 17 16 15 15
19 19 21 19 20 20 20 21 21 22 22 23 24 24 24 25 27 28 28 30 30 30 33 35 35 35 32 33 32 33 32 29 27 26 25 25 24 24 23 23 24 22 18 16
23 22 20 21 21 22 22 23 24 25 26 26 25 26 26 26 27 27 29 31 32 35 35 36 37 35 34 35 33 33 29 28 27 26 26 25 24 23 23 23 23 23 22 21
25 26 25 24 25 25 25 25 26 26 26 27 27 27 27 28 30 35 36 38 34 34 36 38 37 35 35 37 36 34 32 28 28 28 27 26 25 25 25 25 25 25 25 24
28 31 32 30 27 28 27 28 26 26 28 28 29 30 32 36 39 39 39 41 40 38 38 38 36 37 38 38 37 34 33 32 29 29 30 28 27 27 26 26 27 26 26 24
30 29 28 25 26 28 30 30 29 30 31 32 34 36 38 36 33 37 39 43 42 40 39 37 40 37 40 40 36 36 36 34 33 33 30 29 28 27 28 28 28 28 27 26
38 34 35 29 28 29 30 31 31 32 34 34 36 35 36 38 39 39 44 42 41 40 36 42 30 36 40 36 28 35 36 36 34 33 33 31 30 30 31 29 29 29 29 28
35 35 31 33 32 32 32 35 33 34 37 36 37 36 36 35 40 42 46 39 37 35 40 42 41 41 38 38 30 36 38 37 35 34 35 33 33 32 31 30 30 30 30 30
31 32 32 31 33 36 31 31 32 32 35 36 33 33 34 39 44 45 42 39 35 41 41 37 41 37 38 34 33 38 40 39 38 36 35 34 33 32 31 32 31 30 30 30
33 32 31 32 32 35 39 36 36 35 34 37 41 42 42 38 42 44 38 34 38 36 39 39 38 35 34 30 34 38 39 38 36 36 35 35 35 34 32 32 32 31 30 30
34 35 33 34 33 33 39 39 38 35 33 33 34 36 35 34 36 37 35 37 40 39 35 36 33 29 26 30 36 38 38 36 35 34 33 34 33 33 32 32 31 31 31 31
36 36 35 37 37 37 34 34 36 36 38 39 37 37 36 36 36 35 34 35 34 33 34 33 31 23 23 35 35 35 35 35 34 34 33 32 33 32 33 32 32 31 31 31
36 36 38 36 33 31 35 39 41 43 43 41 38 36 36 34 31 35 40 36 31 30 32 30 25 24 34 35 35 34 33 33 33 34 33 33 32 32 32 32 32 32 32 31
37 32 32 34 34 33 34 37 34 36 39 36 36 34 36 36 34 33 34 33 33 32 32 31 33 34 33 33 33 32 31 31 30 30 31 31 31 32 32 32 32 32 32 32
40 38 40 38 38 38 37 35 36 33 35 35 32 35 36 35 33 32 31 31 31 31 32 33 33 32 33 33 32 31 31 31 30 30 31 31 31 32 32 31 32 31 32 31

GFSNGP_con_lsi_162.txt.gz
Lid_Strength_Index
11 10 10 10 11 12 13 12 15 12 12 10 8 8 7 6 8 10 11 12 12 13 13 14 14 14 15 15 15 15 14 14 15 14 14 14 14 13 13 13 13 12 12 11
14 11 11 12 11 11 12 11 11 11 11 7 6 6 7 7 9 10 11 11 13 14 15 15 16 15 16 16 16 15 15 15 15 15 15 14 14 14 14 14 13 13 12 11
16 12 12 16 13 11 10 10 10 13 10 7 7 8 8 7 8 9 10 12 13 14 15 16 16 16 17 16 16 16 16 16 16 16 16 15 15 15 14 14 13 13 12 11
16 14 20 12 8 9 10 9 8 9 8 7 7 6 7 6 8 9 11 13 14 15 16 16 17 17 16 16 16 16 16 16 16 16 16 16 15 15 15 14 14 13 12 12
17 17 13 11 10 10 11 11 8 8 7 7 6 11 10 11 9 10 13 14 15 16 16 17 17 17 17 17 17 17 17 17 17 17 17 16 16 15 15 14 14 14 13 13
15 18 19 11 8 9 8 14 7 7 7 7 11 12 8 13 13 14 15 15 16 17 17 18 18 18 18 18 18 18 18 18 18 17 17 17 16 16 15 14 15 14 14 14
15 17 15 10 9 9 15 13 8 7 7 7 11 8 12 13 14 15 16 17 17 17 18 19 18 18 18 19 20 19 19 19 19 18 18 16 16 16 16 16 15 15 15 14
14 16 17 7 11 11 8 10 12 11 9 9 11 15 15 15 17 17 18 18 18 18 19 20 19 19 20 21 21 21 21 21 20 19 18 17 17 17 17 16 17 17 16 16
11 11 9 9 9 12 13 12 12 13 13 13 16 17 17 18 18 18 19 19 19 19 20 21 21 21 22 23 22 23 23 23 21 20 19 19 19 18 18 18 17 17 17 17
10 8 9 11 13 14 14 14 14 15 15 15 17 18 18 19 19 19 20 21 21 21 22 23 23 23 24 24 24 25 24 23 21 21 21 20 19 19 19 19 19 19 19 19
10 9 12 11 12 13 15 15 16 16 16 17 17 18 18 19 20 20 21 21 21 22 23 24 24 25 25 26 26 25 24 23 22 21 21 21 20 20 20 19 19 20 19 19
11 8 8 8 12 14 16 16 16 18 19 17 17 18 19 20 20 21 22 22 23 24 24 25 26 26 27 27 27 27 25 24 23 23 22 22 22 22 20 20 19 18 18 18
8 14 15 15 15 15 16 17 18 18 18 19 19 19 20 21 21 22 23 23 24 24 25 26 27 28 29 28 28 28 27 26 25 24 24 24 23 23 24 21 19 19 18 18
15 15 16 16 16 17 18 18 19 20 20 20 21 21 21 22 23 24 24 25 25 26 27 28 29 29 29 29 29 29 28 27 25 25 24 24 24 24 23 24 24 23 20 18
18 18 18 18 19 20 20 21 22 23 23 23 22 23 23 24 24 25 26 27 26 27 28 29 30 29 29 31 29 29 27 25 26 25 25 25 24 23 23 23 23 23 22 21
22 21 20 21 22 22 22 22 22 23 23 24 24 24 24 24 26 28 29 29 27 26 29 30 30 29 31 31 29 27 26 27 27 25 25 25 24 24 24 24 24 23 23 23
23 24 24 24 23 24 23 22 22 24 24 25 25 26 27 28 28 29 30 32 31 30 30 30 29 31 32 31 30 26 26 26 28 26 25 25 25 25 24 24 24 24 24 22
25 24 21 21 23 24 25 24 24 24 25 25 28 28 29 29 26 28 29 32 33 32 31 29 30 32 32 31 30 26 26 26 26 27 26 26 25 25 25 25 25 25 24 23
29 25 26 23 23 24 25 26 26 27 28 29 30 29 28 28 28 28 32 32 31 29 25 29 27 27 29 30 27 25 25 26 26 26 26 27 26 25 26 25 25 25 25 25
30 30 28 28 28 27 28 29 28 29 29 29 29 30 29 29 30 31 33 29 26 24 28 29 30 30 29 30 28 26 26 26 26 26 26 27 26 26 26 26 26 26 25 25
28 28 28 28 28 29 27 28 29 29 32 31 29 29 28 27 31 33 32 27 24 30 29 30 29 27 27 29 28 26 26 26 26 27 27 27 27 26 26 26 26 26 26 26
29 29 29 30 29 30 31 29 28 30 31 32 33 32 31 29 32 33 32 26 25 31 28 27 26 28 28 28 25 25 26 26 27 27 27 27 27 27 27 26 27 26 26 26
30 29 29 31 29 27 32 31 31 29 30 30 31 31 29 24 25 27 25 26 28 28 28 26 27 28 26 25 24 25 26 27 27 27 27 27 27 27 27 27 26 26 27 27
30 30 29 31 33 31 29 29 31 30 30 30 30 30 28 27 27 28 26 29 30 28 26 26 26 22 23 23 25 25 26 26 27 27 26 28 27 27 27 27 28 27 27 27
30 30 32 32 30 27 27 28 31 32 33 31 31 31 31 28 26 25 28 27 28 26 25 26 23 23 24 25 26 27 27 26 26 27 27 27 27 27 27 27 27 27 27 27
30 28 28 28 26 25 26 30 27 27 29 28 28 27 27 28 28 28 27 28 27 27 27 26 26 26 26 27 27 27 26 26 26 26 26 26 26 27 27 27 27 27 27 27
29 30 29 29 30 29 28 28 27 26 29 26 24 25 26 27 28 27 27 26 26 26 26 26 26 27 27 27 27 26 26 26 26 26 26 26 26 27 27 27 27 27 27 28

GFSNGP_con_lsi_165.txt.gz
Lid_Strength_Index
11 10 10 11 11 12 13 12 15 12 12 10 8 7 6 6 6 5 7 8 8 9 10 11 12 13 14 14 14 13 13 13 14 13 13 13 13 13 13 13 12 12 12 11
14 11 11 12 11 10 11 11 11 11 11 7 6 5 6 5 5 6 7 7 8 9 11 12 13 13 14 14 14 14 14 14 14 14 14 14 14 14 13 13 13 12 12 12
16 12 12 16 12 11 10 9 10 13 10 7 7 7 6 6 5 6 6 7 9 10 11 12 13 14 15 15 14 15 15 15 15 15 15 15 14 14 14 14 13 13 12 12
16 14 20 11 7 8 10 9 8 8 8 7 7 6 5 4 5 6 6 7 9 10 12 13 14 15 15 15 15 15 15 16 16 16 16 15 15 15 14 14 13 13 13 13
17 17 13 11 9 9 10 11 7 8 7 7 6 6 6 5 5 4 5 7 9 11 13 14 15 15 15 16 16 16 16 17 17 16 16 16 15 15 15 14 14 14 13 13
15 18 19 11 8 7 7 14 7 7 7 7 6 10 8 5 7 7 9 11 12 14 15 15 16 16 16 17 17 17 18 18 17 17 17 16 16 16 15 15 15 14 14 13
15 17 14 9 8 7 15 12 7 6 6 6 8 6 6 9 10 11 12 14 15 15 16 16 16 16 17 17 18 19 19 19 18 18 18 17 17 17 16 16 16 15 15 14
14 16 18 7 9 11 8 7 7 8 8 9 8 11 11 12 13 14 15 16 16 17 18 17 17 17 18 19 20 20 20 20 20 20 19 18 18 18 17 17 17 17 16 16
12 12 8 6 7 6 7 7 9 10 9 10 12 13 13 14 15 16 16 17 17 18 19 19 19 18 19 21 21 22 23 23 21 20 20 19 19 19 19 18 18 18 18 18
10 8 7 7 7 9 9 9 10 11 11 11 12 13 14 15 16 17 18 18 18 19 21 22 21 21 21 22 23 24 23 22 21 21 21 20 20 19 20 20 20 20 19 19
10 8 7 7 7 7 10 11 13 13 12 12 13 14 15 16 17 18 19 20 19 20 21 22 22 23 24 24 25 24 23 22 22 21 21 21 20 20 20 19 19 20 20 20
11 7 7 7 9 8 10 12 12 14 15 14 14 15 16 18 18 19 20 20 20 21 22 23 24 25 26 26 26 26 24 23 23 23 22 22 22 21 19 19 18 18 18 19
7 9 10 12 13 12 11 12 13 14 14 16 15 16 17 19 19 20 21 21 22 22 23 24 25 26 27 27 27 27 26 24 24 23 23 23 23 23 24 21 19 19 18 18
12 13 13 13 12 13 14 15 15 16 16 17 18 18 19 20 21 21 22 22 22 24 25 26 26 27 27 27 28 28 27 26 25 24 24 24 24 24 24 24 24 22 19 18
15 15 15 14 15 16 16 17 19 19 19 20 19 20 20 22 22 22 23 24 24 25 26 27 27 27 28 29 28 28 26 25 26 25 25 25 25 23 23 23 23 23 22 20
19 19 18 18 18 19 19 19 20 21 21 21 21 22 21 21 23 25 25 26 26 26 27 28 28 28 29 30 29 27 26 27 28 26 25 25 24 24 23 23 23 23 23 22
20 21 21 20 20 20 20 19 18 20 21 22 22 22 23 24 26 27 28 28 28 27 27 28 28 30 31 31 30 26 25 25 27 26 25 24 24 25 24 24 24 24 23 22
20 21 18 18 19 20 21 21 21 21 22 22 24 25 26 26 25 27 28 30 30 30 29 27 28 30 31 30 29 26 25 25 25 25 25 25 25 24 25 24 24 24 24 23
25 24 23 21 20 21 22 23 24 25 26 27 27 27 27 27 26 27 29 30 30 27 25 28 25 27 28 29 28 25 25 24 24 24 24 26 25 25 24 24 24 24 24 24
27 26 26 26 26 26 26 26 26 27 27 26 27 28 27 28 29 30 30 28 25 24 27 28 29 28 29 31 27 25 25 24 25 25 25 25 25 25 24 25 25 25 24 24
26 26 27 27 27 27 26 27 26 27 29 28 26 27 27 28 30 31 30 26 24 28 28 29 28 26 26 27 27 26 25 25 25 25 25 25 25 25 25 25 25 24 24 24
26 26 27 27 27 28 28 27 27 29 29 30 32 30 29 29 31 31 30 25 25 31 28 26 26 27 27 27 25 25 24 24 25 25 25 25 25 25 25 25 25 25 25 25
26 26 26 27 27 25 28 28 28 27 29 30 30 29 27 23 24 25 24 26 26 28 27 26 26 27 27 26 25 24 24 24 25 25 25 25 25 25 25 25 25 25 25 25
26 26 26 26 29 28 27 28 28 27 29 28 29 29 26 25 25 25 24 28 29 27 27 25 24 22 23 23 23 23 23 24 24 24 24 25 25 25 26 26 26 25 25 26
26 26 27 29 27 25 24 25 28 28 29 28 27 27 28 25 24 24 25 25 26 28 26 25 22 22 23 23 23 23 24 24 24 25 25 25 25 25 25 25 25 26 26 26
26 25 25 25 23 22 22 25 24 24 25 26 25 25 25 26 26 26 26 27 26 26 26 25 24 24 24 25 24 24 24 24 24 24 25 25 25 25 25 25 25 26 26 26
25 25 25 25 25 24 23 24 23 23 25 24 23 23 24 24 25 26 26 25 25 25 25 24 23 24 25 25 24 24 24 24 24 24 24 25 25 25 25 25 25 25 25 26

GFSNGP_con_lsi_168.txt.gz
Lid_Strength_Index
12 11 11 12 12 12 14 13 15 13 13 12 10 10 9 9 9 9 8 9 10 11 11 13 14 15 15 15 15 15 15 15 15 15 14 14 15 14 14 14 13 13 13 12
14 11 12 13 12 11 12 12 12 12 12 9 8 7 8 8 8 8 7 8 9 9 10 12 13 15 15 15 15 15 15 16 15 15 15 15 15 15 15 14 14 13 13 13
17 13 13 16 13 12 12 10 11 14 10 8 8 8 7 7 7 6 7 7 8 9 10 12 14 15 15 16 15 16 15 16 16 16 15 15 15 15 15 15 15 14 14 14
16 15 20 13 9 9 10 10 9 9 8 8 7 7 6 7 7 7 7 7 7 10 12 14 15 15 16 16 16 16 16 16 16 16 16 16 16 16 16 15 15 15 15 14
17 17 14 12 11 11 11 11 8 9 8 7 7 7 7 6 6 7 7 6 8 10 13 15 16 16 16 16 16 16 17 17 17 17 17 16 16 16 16 16 16 15 15 15
16 18 20 12 9 8 9 14 9 8 8 8 8 11 8 6 8 11 11 11 12 14 15 16 16 16 16 17 17 18 17 17 17 17 17 17 17 17 16 16 16 15 15 15
16 17 16 10 10 8 15 13 8 8 8 8 9 8 9 12 13 13 14 15 15 15 16 17 16 16 17 17 18 18 18 19 19 19 18 18 18 17 17 17 17 16 16 16
15 17 18 9 10 12 10 10 9 10 9 9 10 12 13 13 15 15 16 16 16 17 17 17 17 17 18 19 19 20 20 20 20 20 19 18 19 18 18 18 18 18 17 17
13 13 9 9 9 8 9 9 10 11 11 10 11 12 13 15 15 16 16 16 17 18 18 18 18 17 19 21 21 22 22 22 21 20 19 19 19 19 19 19 19 19 19 19
12 10 10 10 10 10 11 10 11 11 11 11 12 13 14 14 15 16 17 17 18 19 20 21 20 19 21 22 22 23 23 22 21 21 21 20 20 20 20 20 21 21 21 21
13 10 11 9 10 9 10 11 12 13 13 12 12 13 14 15 16 16 18 18 19 20 21 22 22 23 23 23 23 23 22 22 22 21 21 21 20 21 21 20 20 23 25 22
12 10 10 9 10 11 11 12 13 14 14 13 13 14 15 16 17 18 19 19 19 20 22 23 24 25 25 25 25 24 23 23 23 23 22 22 22 22 20 19 18 18 18 19
9 10 11 13 14 14 14 15 15 15 15 15 15 15 16 17 18 19 20 20 20 21 23 24 25 26 26 26 26 26 25 24 24 23 23 24 24 24 26 23 20 19 19 18
14 13 14 15 14 15 15 16 17 18 18 17 18 18 18 19 19 19 20 20 21 22 23 24 25 27 27 27 27 28 28 26 25 24 25 25 25 26 25 26 27 26 22 20
17 17 17 18 19 19 19 20 21 21 20 20 20 19 19 20 20 20 20 21 23 24 25 25 26 28 28 29 28 28 26 25 26 26 25 26 27 26 26 27 28 29 28 23
23 23 23 22 21 22 22 22 22 21 20 19 19 19 19 20 21 23 23 24 25 26 26 27 27 28 29 29 28 28 28 27 28 29 29 29 27 28 29 30 31 31 30 28
24 25 26 24 22 21 21 19 19 20 20 21 21 20 22 24 25 26 26 25 25 25 26 26 27 28 29 30 30 30 30 30 29 33 33 34 33 33 32 34 31 30 28 25
24 24 22 21 21 20 20 20 19 20 21 21 22 23 24 24 25 27 28 29 30 32 31 30 31 33 34 35 35 34 34 34 35 36 34 34 35 34 34 33 30 30 27 28
29 28 28 25 24 21 20 21 22 23 24 24 25 25 26 26 27 29 31 33 33 34 31 31 25 33 37 37 35 35 34 34 35 35 35 33 35 35 33 32 30 30 29 28
28 30 30 30 30 29 28 30 28 29 32 28 28 28 30 34 32 33 36 35 33 31 34 33 35 33 35 34 28 34 35 35 34 34 35 35 34 32 32 29 29 28 28 27
30 30 28 27 30 31 28 27 27 29 32 29 28 29 30 34 35 34 36 34 31 32 33 32 34 34 34 34 34 38 37 35 34 33 34 33 33 32 31 30 29 28 27 27
32 32 32 32 32 33 33 32 30 30 31 32 33 31 31 34 36 37 36 31 34 31 33 34 34 34 35 28 34 35 34 33 32 33 32 32 31 30 28 28 27 26 26 26
31 32 32 32 32 33 35 34 34 31 31 31 31 31 29 29 30 32 31 31 32 33 33 32 31 28 28 33 34 33 32 31 30 30 30 30 27 27 27 27 26 26 26 26
29 29 31 32 33 34 32 34 35 35 34 34 33 32 30 31 32 32 31 30 30 27 32 32 28 22 25 31 31 31 30 29 29 29 27 26 26 26 26 26 26 26 26 26
27 28 29 30 29 29 29 30 32 35 35 33 34 34 32 31 29 32 32 31 27 31 32 28 23 23 28 30 30 29 28 28 27 28 26 26 26 26 26 26 26 26 26 26
27 26 27 27 26 25 26 28 28 28 29 30 31 29 31 32 31 31 33 32 32 30 31 31 32 31 30 30 29 28 26 26 26 26 26 26 26 26 26 26 26 26 26 26
26 25 26 27 27 27 25 25 24 25 26 26 27 26 28 30 30 30 30 30 31 31 31 31 30 28 30 29 28 27 26 26 26 26 26 26 25 25 25 25 25 25 25 25

GFSNGP_con_lsi_171.txt.gz
Lid_Strength_Index
12 12 12 12 13 13 14 13 16 13 14 12 10 11 10 10 11 11 10 10 11 12 12 13 14 15 16 16 16 16 16 16 16 16 16 16 16 15 15 15 14 14 14 13
14 12 12 14 12 12 12 12 12 12 12 9 9 10 11 9 9 9 9 8 9 10 11 12 13 14 15 16 16 15 16 16 16 16 16 16 16 15 15 15 15 14 14 14
17 13 13 16 13 12 12 11 11 14 11 8 9 8 8 8 7 7 8 8 8 9 10 11 13 14 15 16 15 16 16 16 16 16 16 16 15 15 15 15 15 15 15 14
16 15 20 13 10 9 11 10 9 9 9 8 8 7 7 7 8 8 7 7 7 8 9 11 13 14 15 15 15 15 16 16 16 16 16 15 16 16 16 16 16 16 15 15
17 17 15 13 12 12 12 12 8 9 8 7 7 8 8 8 8 7 7 7 7 7 10 14 15 15 15 15 15 16 16 16 16 16 16 16 16 16 16 16 16 16 15 15
15 18 20 13 10 9 10 15 9 8 8 8 8 11 8 7 8 8 10 10 11 13 15 15 16 15 16 16 16 17 17 17 17 16 16 17 17 17 16 16 16 16 15 16
16 17 17 12 11 9 15 13 8 9 8 8 10 8 9 12 13 15 15 15 16 16 16 16 15 15 16 17 17 17 17 18 18 18 18 17 18 17 17 17 17 16 16 16
15 17 18 10 11 12 10 10 10 11 9 9 10 11 12 13 15 15 16 17 16 17 17 16 16 16 17 18 18 19 19 19 19 19 18 18 18 18 18 18 18 18 18 18
13 13 10 10 10 9 10 9 10 10 10 9 10 11 13 14 16 16 16 16 16 17 17 17 17 16 18 20 20 20 20 21 20 19 19 18 19 19 19 19 19 19 19 20
12 11 11 11 11 10 10 9 9 10 10 11 11 11 12 14 15 16 16 17 18 18 19 19 18 18 20 20 20 22 22 20 20 20 20 20 19 19 19 20 20 21 21 22
13 11 11 10 10 9 10 11 11 12 12 11 12 12 13 14 16 16 17 18 18 19 19 21 21 21 21 21 21 21 21 21 20 20 20 20 20 20 20 20 20 21 22 22
13 11 10 9 10 10 10 12 12 13 14 13 12 12 14 15 16 17 18 18 19 20 21 23 23 24 23 22 21 21 21 21 21 21 22 22 22 22 20 19 19 18 18 18
9 9 10 10 14 15 14 16 16 15 15 15 15 15 16 17 18 18 19 19 20 21 22 23 24 24 24 24 23 22 22 22 23 23 23 23 23 24 24 23 20 19 19 19
12 12 12 15 11 14 15 17 18 19 19 18 19 19 20 20 20 21 20 21 21 22 22 22 23 25 25 25 24 25 24 24 24 23 24 24 24 24 24 26 27 27 23 21
14 16 15 17 18 19 20 20 22 22 22 23 23 21 21 21 22 21 21 20 20 21 23 23 24 26 25 26 26 26 25 24 25 25 25 25 25 26 26 27 29 30 29 25
24 24 23 21 21 23 23 24 22 22 22 23 23 23 22 21 21 22 22 22 23 24 25 25 25 26 26 26 26 26 27 25 27 29 29 29 28 28 29 29 30 31 32 31
21 20 26 24 22 22 22 24 23 24 23 21 23 23 23 24 24 25 24 23 23 24 24 24 25 26 27 28 28 29 29 30 29 31 32 31 31 32 33 36 34 34 32 29
27 28 28 25 25 24 25 21 20 20 22 21 21 22 23 23 24 25 25 26 26 26 25 26 27 29 30 30 31 31 32 32 35 35 36 36 36 35 36 36 36 34 31 31
31 27 28 26 26 25 23 22 22 22 22 22 23 23 23 23 24 25 27 28 29 29 29 31 24 30 32 33 34 36 36 36 37 38 37 35 38 38 37 36 35 34 33 30
32 32 31 27 28 24 24 28 25 25 26 24 25 25 27 28 28 29 29 28 27 28 32 30 29 33 34 33 25 34 35 35 34 35 38 38 36 34 35 34 33 32 33 31
31 33 32 31 31 32 31 30 29 28 30 27 25 25 26 32 32 31 32 30 30 34 36 31 31 32 34 34 34 37 37 37 36 35 35 34 35 34 34 35 33 31 29 28
33 33 32 32 32 32 34 34 32 32 34 33 32 31 31 34 35 36 35 30 34 30 33 33 33 33 33 29 35 36 37 37 36 37 35 35 35 34 32 31 30 29 28 27
30 30 29 30 31 31 34 34 33 30 31 31 30 30 29 30 31 31 30 30 35 32 33 33 33 30 28 33 35 35 35 35 33 32 32 32 32 31 30 29 28 27 27 26
28 28 29 30 31 32 29 32 34 33 32 32 31 30 29 30 32 30 30 30 29 27 32 32 28 23 26 32 34 34 33 32 31 31 30 30 30 29 28 27 27 26 26 26
26 27 29 29 28 28 30 30 31 32 31 33 33 32 31 30 26 27 29 29 26 29 31 29 24 23 26 30 31 31 30 30 30 30 30 29 28 27 27 27 26 26 26 26
26 26 26 27 27 27 27 28 27 28 29 29 30 29 29 29 29 28 28 28 28 28 31 32 31 30 31 31 31 30 29 29 28 28 27 27 26 27 26 26 26 26 26 25
26 24 26 26 25 25 25 25 25 26 26 26 26 26 26 27 27 27 27 28 28 30 30 32 32 30 31 32 31 30 29 29 27 27 27 26 26 26 26 25 25 25 25 25

GFSNGP_con_lsi_174.txt.gz
Lid_Strength_Index
12 13 12 12 13 13 14 13 16 14 14 12 11 12 10 9 10 11 10 10 11 11 11 12 13 14 15 15 15 16 16 17 17 16 16 16 16 16 15 15 15 15 15 14
14 12 12 14 12 12 12 12 12 12 13 10 11 10 11 10 10 10 10 9 9 9 10 12 12 13 14 15 15 15 16 16 16 16 15 15 15 15 15 15 15 15 15 14
17 13 14 16 13 12 12 11 11 14 11 8 9 9 9 8 8 7 7 8 8 8 9 10 11 12 14 14 14 15 15 16 16 15 16 15 15 15 15 15 15 15 15 14
16 15 20 13 9 10 11 10 9 10 9 8 8 7 7 7 7 7 7 7 8 8 8 9 10 13 14 15 15 15 15 16 16 15 15 15 15 15 15 15 15 15 15 15
17 17 15 14 13 11 12 12 9 9 8 8 7 9 9 8 8 7 7 7 7 8 8 11 13 14 15 15 15 15 16 16 15 15 15 16 16 16 16 16 16 15 15 15
15 18 20 12 11 10 10 15 9 8 8 8 8 11 9 7 8 8 8 10 11 12 14 14 15 14 15 15 15 16 16 16 15 15 15 16 16 16 16 15 15 15 15 15
16 17 16 13 12 10 15 13 9 9 8 8 9 8 8 11 11 13 13 14 15 15 15 15 15 15 15 16 16 16 16 16 17 17 17 16 16 16 16 16 16 16 16 16
15 17 18 12 12 13 11 11 10 10 9 9 8 9 10 12 12 13 14 16 16 17 17 16 15 15 16 17 17 17 17 18 18 18 17 17 17 17 17 17 17 17 17 17
13 14 10 11 11 11 11 10 10 11 10 10 10 10 11 12 14 14 15 16 17 17 17 17 16 16 18 19 18 19 19 19 19 18 17 17 17 18 18 17 18 18 19 19
12 11 11 9 11 11 10 10 9 10 11 11 10 10 11 12 14 15 16 17 18 18 18 19 18 17 18 19 19 20 20 20 19 19 19 18 18 18 18 19 19 20 20 20
13 11 12 11 10 10 10 11 11 12 11 11 11 11 11 13 14 15 17 18 18 18 19 21 20 21 20 20 20 20 20 19 19 19 18 18 19 19 19 19 19 20 21 21
13 11 10 10 11 10 11 12 11 12 12 13 12 12 13 14 15 17 18 19 19 20 21 22 22 23 23 22 20 20 20 19 19 19 19 20 20 21 18 18 17 17 17 19
9 10 11 10 14 16 14 14 15 13 13 14 15 14 16 17 18 19 20 20 20 21 22 23 24 26 27 25 23 21 19 20 21 20 20 21 21 22 23 21 20 19 19 19
12 12 12 14 12 13 15 16 17 19 19 18 18 20 20 20 22 21 21 20 20 22 24 25 26 26 25 23 22 21 20 20 20 21 21 22 22 23 23 24 24 24 22 21
13 15 14 17 18 18 19 20 20 20 21 22 23 21 21 22 22 23 24 24 23 24 24 24 25 25 24 23 23 23 22 23 22 22 23 23 23 24 24 25 26 29 31 26
23 25 24 21 21 21 22 23 21 21 24 24 24 25 25 25 25 25 24 23 24 24 24 23 24 24 24 24 24 24 23 23 24 25 25 26 26 26 26 27 28 30 31 32
18 13 22 21 24 24 22 22 21 23 24 24 25 25 24 25 25 25 26 25 24 24 23 23 24 25 25 25 25 25 26 26 26 28 29 30 30 31 31 33 33 35 33 32
27 28 27 25 24 25 23 23 23 23 22 20 20 21 22 23 23 24 24 24 24 24 24 23 24 25 26 27 27 28 29 30 32 32 33 34 35 35 36 37 38 36 33 35
33 29 29 28 28 27 25 24 23 24 25 22 21 21 21 21 23 23 25 25 25 26 26 28 22 28 29 30 30 31 31 32 34 37 36 36 38 40 40 39 37 36 35 34
32 34 34 31 31 31 27 30 28 27 29 26 26 23 22 22 23 25 27 27 29 28 29 29 28 30 31 30 27 33 33 32 33 36 39 39 38 37 36 35 35 35 36 35
28 32 32 33 30 34 34 32 29 28 30 26 25 28 29 34 31 29 29 27 28 31 33 28 29 31 32 31 31 34 36 36 36 36 37 36 37 36 35 36 35 34 33 33
33 32 31 32 33 32 34 33 29 29 28 28 30 28 29 32 33 34 35 29 34 30 33 32 30 30 32 28 33 36 37 37 37 40 39 39 38 35 34 34 33 32 32 31
31 31 30 30 29 29 32 33 31 29 28 28 28 29 28 28 29 28 28 29 33 30 31 31 30 28 28 31 34 35 35 36 36 36 35 35 33 33 33 32 31 31 30 29
30 30 29 30 30 30 28 29 32 32 31 31 30 29 28 30 32 30 31 29 28 26 29 30 26 23 27 32 34 35 35 35 34 34 33 31 32 32 32 31 30 29 28 27
28 29 29 29 28 26 27 28 30 31 29 28 28 28 27 26 25 25 28 28 25 27 28 26 24 22 26 32 33 32 32 32 32 32 32 31 31 31 30 30 29 27 27 26
27 27 27 26 27 27 26 27 26 27 27 27 27 27 27 27 26 26 26 26 26 26 26 27 28 26 28 29 29 30 30 30 29 29 30 30 30 30 29 28 27 26 26 26
27 25 26 26 26 26 25 25 25 26 26 25 25 25 25 26 26 25 25 25 26 26 27 28 29 28 29 30 31 30 30 29 29 29 30 30 29 28 27 26 26 26 26 26